Regional Weather Roundup
Issued by NWS

Home | Current Version | Previous Version | Text Only | Print | Product List | Glossary On
Versions: 1 2 3 4 5 6 7 8 9 10 11 12 13 14 15 16 17 18 19 20 21 22 23 24 25 26 27 28 29 30 31 32 33 34 35 36 37 38 39 40 41 42 43 44 45 46 47 48 49 50
000
ASUS44 KLIX 012010
RWRLA
LOUISIANA WEATHER ROUNDUP
NATIONAL WEATHER SERVICE NEW ORLEANS LA
200 PM CST SUN MAR 01 2015

NOTE: "FAIR" INDICATES FEW OR NO CLOUDS BELOW 12,000 FEET WITH NO
      SIGNIFICANT WEATHER AND/OR OBSTRUCTIONS TO VISIBILITY.
      SKY/WX - SKY CONDITION AND SIGNIFICANT WEATHER.
      TMP - AIR TEMPERATURE.    DP   - DEWPOINT TEMPERATURE.
      RH  - RELATIVE HUMIDITY.  PRES - PRESSURE.
      HX  - HEAT INDEX.         WCI  - WIND CHILL INDEX.

*  THESE STATIONS ARE NOT NWS OR FAA STATIONS AND ARE NOT UNDER
   NWS QUALITY CONTROL.

LAZ040-048-061>063-065-066-069-012100-
SOUTHEAST LOUISIANA

CITY           SKY/WX    TMP DP  RH WIND       PRES   REMARKS
N.O. AUDUBON     N/A     67  66  98 MISG        N/A
N.O. INTL ARPT CLOUDY    65  59  81 E6        30.26F HAZE
N.O. LAKEFRONT CLOUDY    61  56  83 E9        30.28S HAZE
SLIDELL        CLOUDY    64  60  87 VRB6      30.27F
BATON ROUGE    LGT RAIN  63  60  90 E9        30.25F FOG
BOOTHVILLE     CLOUDY    67  65  93 E6        30.26F FOG
BELLE CHASSE   CLOUDY    67  63  87 E7        30.26F FOG
BOGALUSA*        N/A     66  58  76 SE5       30.29F
GALLIANO*      MOCLDY    73  65  78 E7        30.24F
NEW ROADS*     LGT RAIN  65  62  90 E6        30.24F
GONZALES*      CLOUDY    63  62  97 NE6       30.25F
HAMMOND*       CLOUDY    68  61  77 SE7       30.28S
HOUMA*         PTSUNNY   75  66  73 SE15      30.24F
PORT FOURCHON* CLEAR     70  66  88 SE12G18   30.26F FOG

$$

LAZ041-044-053-054-012100-
SOUTHWEST LOUISIANA

CITY           SKY/WX    TMP DP  RH WIND       PRES   REMARKS
LAKE CHARLES   RAIN      69  67  93 S9        30.17F FOG
LAFAYETTE      CLOUDY    75  65  70 SE8G20    30.20F
PATTERSON      CLOUDY    75  66  73 SE13G22   30.23F
SALT POINT       N/A     75  66  73 SE12G21   30.20F
NEW IBERIA     PTSUNNY   75  66  73 SE18      30.21F
CHENAULT AIRPK RAIN      70  66  88 SE6       30.18F

$$

LAZ027-028-012100-
CENTRAL LOUISIANA

CITY           SKY/WX    TMP DP  RH WIND       PRES   REMARKS
FORT POLK      LGT RAIN  61  59  94 E6        30.20F VSB 1
ALEXANDRIA INT LGT RAIN  58  58 100 E9        30.19F FOG
ALEXANDRIA     RAIN      60  57  89 E5        30.24F

$$

LAZ001-002-012100-
NORTHWEST LOUISIANA

CITY           SKY/WX    TMP DP  RH WIND       PRES   REMARKS
SHREVEPORT     FOG       41  41 100 N9        30.26F VSB 1
BARKSDALE AFB  CLOUDY    41  40  99 N6        30.27F
DTN SHREVEPORT CLOUDY    40  38  93 N6        30.27F FOG

$$

LAZ014-016-012100-
NORTHEAST LOUISIANA

CITY           SKY/WX    TMP DP  RH WIND       PRES   REMARKS
MONROE         LGT RAIN  46  46 100 N6        30.29S FOG
TALLULAH       CLOUDY    58  57  97 E7        30.25F FOG

$$




USA.gov is the U.S. government's official web portal to all federal, state and local government web resources and services.